User: anonymous   Login
Location: Unspecified
(0.0000°N, 0.0000°E)
Time: 17:43:50
(UTC+00:00)
Language:

USA 169 - Orbit

View from above orbital plane
View from above orbital plane
View from above satellite
View from above satellite

Ground track
Ground track

The orbit data is extracted from the following two-line orbital elements,

1 27711U 03012A   19084.47960177 -.00000023  00000-0  00000+0 0  9992
2 27711   8.4005  47.8314 0003564 339.4807 207.9392  1.00272023  5167
Epoch (UTC): 25 March 2019 11:30:37
Eccentricity: 0.0003564
inclination: 8.4005°
perigee height: 35771 km
apogee height: 35801 km
right ascension of ascending node: 47.8314°
argument of perigee: 339.4807°
revolutions per day: 1.00272023
mean anomaly at epoch: 207.9392°
orbit number at epoch: 516

The dashed part of the orbit path shows where the satellite is in the earth's shadow,  

DLR